This demonstration page uses our WeatherBlox Daily Observations layout. Learn more.

Left ArrowRight Arrow

39.51506, -84.39828

Hourly Observations for March 4, 2021

Temp ( °F °C ) Dew Point ( °F °C ) Humidity (%) Winds ( mph kmh ) Pressure ( in mb ) Visibility ( mi km ) Precip ( " mm )
12:15 am 00:15 Clear 44 6.6 34 1.2 69 69 N 9 15 30.10 1019 10 16 N/A
12:35 am 00:35 Clear 43 6.2 34 0.9 69 69 N 3 6 30.10 1019 10 16 N/A
12:55 am 00:55 Clear 42 5.4 33 0.4 70 70 N 6 9 30.11 1020 10 16 N/A
1:15 am 01:15 Clear 41 5 32 undefined 70 70 N 5 7 30.11 1020 10 16 N/A
1:35 am 01:35 Clear 41 5 32 undefined 70 70 N 7 11 30.12 1020 10 16 N/A
1:55 am 01:55 Clear 39 4 30 -1 70 70 NNE 7 11 30.13 1020 10 16 N/A
2:15 am 02:15 Clear 38 3.4 31 -0.5 76 76 NNE 6 9 30.14 1021 10 16 N/A
2:35 am 02:35 Clear 37 2.9 31 -0.5 79 79 NNE 6 9 30.14 1021 10 16 N/A
2:55 am 02:55 Clear 38 3.1 31 -0.8 76 76 NE 3 6 30.14 1021 10 16 N/A
3:15 am 03:15 Clear 36 2.1 30 -1 80 80 N N/A 30.14 1021 10 16 N/A
3:35 am 03:35 Clear 34 1 32 -0.1 92 92 N N/A 30.14 1021 10 16 N/A
3:55 am 03:55 Clear 31 -0.5 30 -1.2 95 95 N N/A 30.16 1021 10 16 N/A
4:15 am 04:15 Clear 29 -1.4 28 -2.1 95 95 N N/A 30.16 1021 10 16 N/A
4:35 am 04:35 Clear 31 -0.6 30 -0.9 98 98 N N/A 30.16 1021 10 16 N/A
4:55 am 04:55 Clear 29 -1.6 29 -1.8 99 99 N 3 6 30.17 1022 10 16 N/A
5:15 am 05:15 Clear 28 -2.4 27 -2.7 98 98 N N/A 30.17 1022 10 16 N/A
5:35 am 05:35 Clear 29 -1.7 29 -1.9 99 99 N N/A 30.18 1022 10 16 N/A
5:55 am 05:55 Clear 31 -0.6 29 -1.5 94 94 N N/A 30.19 1022 10 16 N/A
6:15 am 06:15 Clear 32 0.1 30 -1.2 91 91 N 5 7 30.19 1022 10 16 N/A
6:35 am 06:35 Clear 31 -0.3 29 -1.9 89 89 NNE 5 7 30.20 1023 10 16 N/A
6:55 am 06:55 Clear 32 0.2 30 -1.3 90 90 N 5 7 30.19 1023 10 16 N/A
7:15 am 07:15 Sunny 32 undefined 29 -1.5 90 90 N 3 6 30.21 1023 10 16 N/A
7:35 am 07:35 Sunny 32 0.2 29 -1.5 89 89 N 3 6 30.20 1023 10 16 N/A
7:55 am 07:55 Sunny 33 0.8 30 -1.1 87 87 NNE 5 7 30.21 1023 10 16 N/A
8:15 am 08:15 Sunny 35 1.4 31 -0.8 85 85 N N/A 30.22 1023 10 16 N/A
8:35 am 08:35 Sunny 35 1.8 31 -0.8 83 83 N N/A 30.22 1023 10 16 N/A
8:55 am 08:55 Cloudy 36 2.2 30 -1.2 78 78 N 6 9 30.23 1024 10 16 N/A
9:15 am 09:15 Sunny 37 3 30 -0.9 76 76 N 3 6 30.23 1024 10 16 N/A
9:35 am 09:35 Sunny 39 4.1 29 -1.9 65 65 N 7 11 30.23 1024 10 16 N/A
9:55 am 09:55 Sunny 41 5.1 26 -3.5 54 54 N 9 15 30.23 1024 10 16 N/A
10:15 am 10:15 Sunny 42 5.8 26 -3.5 52 52 N 15 24 30.23 1024 10 16 N/A
10:35 am 10:35 Sunny 44 6.7 26 -3.4 49 49 N 8 13 30.24 1024 10 16 N/A
10:55 am 10:55 Sunny 44 6.5 25 -3.7 48 48 NNE 16 26 30.24 1024 10 16 N/A
11:15 am 11:15 Sunny 45 7 25 -3.9 46 46 N 15 24 30.24 1024 10 16 N/A
11:35 am 11:35 Sunny 46 7.7 25 -3.9 44 44 NNW 15 24 30.23 1024 10 16 N/A
11:55 am 11:55 Sunny 46 7.9 23 -5.2 39 39 N 12 19 30.22 1024 10 16 N/A
12:15 pm 12:15 Sunny 47 8.2 22 -5.4 38 38 NW 15 24 30.22 1023 10 16 N/A
12:35 pm 12:35 Sunny 47 8.6 22 -5.4 37 37 NNW 10 17 30.22 1023 10 16 N/A
1:15 pm 13:15 Sunny 48 8.7 21 -6.1 35 35 N 14 22 30.21 1023 10 16 N/A
1:35 pm 13:35 Sunny 48 9 22 -5.3 36 36 N 12 19 30.21 1023 10 16 N/A
1:55 pm 13:55 Sunny 48 8.7 24 -4.4 40 40 NNW 10 17 30.21 1023 10 16 N/A
2:15 pm 14:15 Sunny 48 8.9 24 -4.7 38 38 NNW 16 26 30.20 1023 10 16 N/A
2:35 pm 14:35 Sunny 47 8.6 25 -3.9 41 41 NNW 13 20 30.20 1023 10 16 N/A
2:55 pm 14:55 Sunny 47 8.4 24 -4.3 41 41 NNW 13 20 30.20 1023 10 16 N/A
3:15 pm 15:15 Sunny 47 8.1 27 -2.8 46 46 N 14 22 30.20 1023 10 16 N/A
3:35 pm 15:35 Sunny 45 7.4 28 -2.3 51 51 NNE 16 26 30.21 1023 10 16 N/A
3:55 pm 15:55 Sunny 45 7.2 28 -2.1 52 52 N 14 22 30.22 1023 10 16 N/A
4:15 pm 16:15 Sunny 44 6.4 28 -2.5 53 53 N 16 26 30.22 1023 10 16 N/A
4:35 pm 16:35 Sunny 43 6 27 -2.8 54 54 N 15 24 30.23 1024 10 16 N/A
4:55 pm 16:55 Sunny 41 5.1 27 -3 56 56 NNE 15 24 30.24 1024 10 16 N/A
5:15 pm 17:15 Sunny 40 4.5 26 -3.2 58 58 N 13 20 30.25 1024 10 16 N/A
5:35 pm 17:35 Sunny 39 3.7 26 -3.6 59 59 NNE 13 20 30.26 1025 10 16 N/A
5:55 pm 17:55 Sunny 38 3.2 25 -4 60 60 NNE 12 19 30.27 1025 10 16 N/A
6:15 pm 18:15 Sunny 36 2.4 24 -4.6 60 60 NNE 16 26 30.28 1025 10 16 N/A
6:35 pm 18:35 Clear 35 1.7 23 -5.1 61 61 NNE 15 24 30.28 1025 10 16 N/A
6:55 pm 18:55 Clear 34 0.9 22 -5.4 63 63 NNE 12 19 30.29 1026 10 16 N/A
7:15 pm 19:15 Clear 33 0.4 22 -5.5 65 65 N 10 17 30.30 1026 10 16 N/A
7:35 pm 19:35 Clear 32 0.1 22 -5.6 66 66 NNE 8 13 30.31 1026 10 16 N/A
7:55 pm 19:55 Clear 31 -0.3 22 -5.8 67 67 NNE 8 13 30.31 1026 10 16 N/A
8:15 pm 20:15 Clear 31 -0.6 22 -5.7 69 69 NNE 8 13 30.32 1027 10 16 N/A
8:35 pm 20:35 Clear 30 -0.9 22 -5.8 70 70 NNE 7 11 30.32 1027 10 16 N/A
8:55 pm 20:55 Clear 30 -1.2 21 -6.1 70 70 NNE 5 7 30.33 1027 10 16 N/A
9:15 pm 21:15 Clear 30 -1.3 21 -5.9 71 71 NNE 3 6 30.33 1027 10 16 N/A
9:35 pm 21:35 Clear 30 -1.3 21 -5.9 71 71 NNE 3 6 30.32 1027 10 16 N/A
9:55 pm 21:55 Clear 29 -1.7 22 -5.4 76 76 N N/A 30.33 1027 10 16 N/A
10:15 pm 22:15 Clear 28 -2.2 23 -5.1 81 81 N N/A 30.33 1027 10 16 N/A
10:35 pm 22:35 Clear 26 -3.1 22 -5.8 82 82 N 3 6 30.33 1027 10 16 N/A
10:55 pm 22:55 Clear 28 -2.5 21 -6 77 77 N 5 7 30.33 1027 10 16 N/A
11:15 pm 23:15 Clear 28 -2.5 21 -6.3 75 75 N 6 9 30.33 1027 10 16 N/A
11:35 pm 23:35 Clear 27 -2.6 20 -6.4 75 75 N 6 9 30.33 1027 10 16 N/A
11:55 pm 23:55 Clear 27 -2.7 20 -6.4 76 76 N 6 9 30.33 1027 10 16 N/A

Powered by AerisWeather